Find STARLINK-37976

NORAD ID: 799501044 Int'l Des: 2026-146W Constellation: starlink operational

当前视图

正在加载3D地球...

About STARLINK-37976

STARLINK-37976 (NORAD 799501044) is a starlink constellation satellite launched Jun 12, 2026

关于 STARLINK-37976

正在加载描述...

即将过境

Passes for default location (London). Set your location on the main map for personalized predictions.

高度历史

Loading altitude history...

两行轨道根数

1 99999C 2026146W 26176.34076389 .00641060 00000-0 984490-4 0 1760
2 99999 97.2855 21.9974 0011268 277.0930 252.1177 16.03868275 13
Epoch: Jun 25, 2026 • Age: 9 hours